| time (UTC) | temp F | wind direction | speed knots | gust knots | rain 1hr in | rain 24hr in | rain mn in | humidity % | barometer mb |
| 20260903221301 | 63 | 209 | 0.0 | 0.9 | 0.00 | 0.00 | 0.00 | 76 | 1017.8 |
| 20260903214301 | 63 | 206 | 0.0 | 0.0 | 0.00 | 0.00 | 0.00 | 80 | 1018.0 |
| 20260903211257 | 63 | 207 | 0.0 | 0.0 | 0.00 | 0.00 | 0.00 | 77 | 1017.5 |
| 20260903204256 | 68 | 228 | 0.9 | 0.9 | 0.00 | 0.00 | 0.00 | 72 | 1017.4 |
| 20260903201254 | 66 | 209 | 0.0 | 0.9 | 0.00 | 0.00 | 0.00 | 73 | 1017.2 |
| 20260903194252 | 63 | 216 | 0.0 | 0.0 | 0.00 | 0.00 | 0.00 | 79 | 1017.5 |
| 20260903191250 | 64 | 167 | 0.9 | 0.9 | 0.00 | 0.00 | 0.00 | 86 | 1017.4 |
| 20260903184249 | 62 | 203 | 0.9 | 0.9 | 0.00 | 0.00 | 0.00 | 81 | 1017.4 |
| 20260903181244 | 60 | 197 | 0.9 | 0.9 | 0.00 | 0.00 | 0.00 | 85 | 1017.4 |
| 20260903174238 | 59 | 197 | 0.0 | 0.9 | 0.00 | 0.00 | 0.00 | 87 | 1017.3 |
| 20260903171233 | 60 | 183 | 1.7 | 2.6 | 0.00 | 0.00 | 0.00 | 85 | 1017.0 |
| 20260903164229 | 56 | 177 | 2.6 | 2.6 | 0.00 | 0.00 | 0.00 | 91 | 1017.0 |
| 20260903161225 | 56 | 197 | 2.6 | 4.3 | 0.00 | 0.00 | 0.00 | 93 | 1017.0 |
| 20260903154222 | 54 | 94 | 1.7 | 1.7 | 0.00 | 0.00 | 0.00 | 95 | 1016.8 |
| 20260903151217 | 53 | 213 | 1.7 | 1.7 | 0.00 | 0.00 | 0.00 | 98 | 1017.0 |
| 20260903144215 | 53 | 174 | 0.9 | 1.7 | 0.00 | 0.00 | 0.00 | 99 | 1017.0 |
| 20260903141213 | 52 | 189 | 1.7 | 1.7 | 0.00 | 0.00 | 0.00 | 99 | 1016.9 |
| 20260903134212 | 52 | 200 | 0.9 | 1.7 | 0.00 | 0.00 | 0.00 | 99 | 1016.9 |
| 20260903131212 | 52 | 199 | 0.0 | 0.0 | 0.00 | 0.00 | 0.00 | 99 | 1016.6 |
| 20260903124208 | 52 | 196 | 0.0 | 0.9 | 0.00 | 0.00 | 0.00 | 99 | 1016.5 |
| 20260903121207 | 53 | 203 | 0.0 | 0.0 | 0.00 | 0.00 | 0.00 | 99 | 1016.2 |
| 20260903114201 | 53 | 157 | 0.9 | 1.7 | 0.00 | 0.00 | 0.00 | 97 | 1016.0 |
| 20260903111202 | 53 | 199 | 0.0 | 0.0 | 0.00 | 0.00 | 0.00 | 98 | 1016.1 |
| 20260903104201 | 52 | 207 | 1.7 | 1.7 | 0.00 | 0.00 | 0.00 | 99 | 1016.1 |
| 20260903101200 | 53 | 212 | 1.7 | 1.7 | 0.00 | 0.00 | 0.00 | 98 | 1016.0 |
| 20260903094200 | 53 | 156 | 0.9 | 0.9 | 0.00 | 0.00 | 0.00 | 98 | 1015.9 |
| 20260903091155 | 53 | 196 | 0.9 | 0.9 | 0.00 | 0.00 | 0.00 | 97 | 1015.8 |
| 20260903084155 | 53 | 194 | 0.0 | 0.9 | 0.00 | 0.00 | 0.00 | 98 | 1015.2 |
| 20260903081154 | 53 | 189 | 2.6 | 2.6 | 0.00 | 0.00 | 0.00 | 95 | 1015.5 |
| 20260903074154 | 53 | 186 | 0.9 | 0.9 | 0.00 | 0.00 | 0.00 | 95 | 1015.4 |
| 20260903071151 | 54 | 208 | 0.9 | 0.9 | 0.00 | 0.00 | 0.00 | 94 | 1015.3 |
| 20260903064147 | 54 | 200 | 0.0 | 0.0 | 0.00 | 0.00 | 0.00 | 97 | 1015.2 |
| 20260903061146 | 53 | 186 | 1.7 | 1.7 | 0.00 | 0.00 | 0.00 | 99 | 1015.1 |
| 20260903054147 | 54 | 191 | 0.9 | 0.9 | 0.00 | 0.00 | 0.00 | 98 | 1015.4 |
| 20260903051143 | 54 | 171 | 2.6 | 2.6 | 0.00 | 0.00 | 0.00 | 99 | 1015.3 |
| 20260903044142 | 55 | 185 | 0.0 | 0.9 | 0.00 | 0.00 | 0.00 | 98 | 1015.4 |
| 20260903041142 | 56 | 179 | 0.9 | 1.7 | 0.00 | 0.00 | 0.00 | 98 | 1015.1 |
| 20260903034142 | 56 | 134 | 0.9 | 1.7 | 0.00 | 0.00 | 0.00 | 99 | 1014.9 |
| 20260903031141 | 57 | 198 | 0.0 | 0.0 | 0.00 | 0.00 | 0.00 | 99 | 1014.4 |
| 20260903024141 | 57 | 187 | 0.9 | 1.7 | 0.00 | 0.00 | 0.00 | 98 | 1013.9 |
| 20260903021137 | 57 | 193 | 0.9 | 0.9 | 0.00 | 0.00 | 0.00 | 99 | 1013.8 |
| 20260903014135 | 58 | 203 | 0.0 | 0.0 | 0.00 | 0.00 | 0.00 | 99 | 1013.5 |
| 20260903011134 | 57 | 206 | 0.9 | 0.9 | 0.00 | 0.00 | 0.00 | 99 | 1012.9 |
| 20260903004131 | 59 | 206 | 0.0 | 0.0 | 0.00 | 0.00 | 0.00 | 99 | 1012.7 |
| 20260903001130 | 59 | 197 | 0.9 | 0.9 | 0.00 | 0.00 | 0.00 | 98 | 1012.1 |
| 20260902234130 | 59 | 202 | 2.6 | 2.6 | 0.00 | 0.00 | 0.00 | 99 | 1011.8 |
| 20260902231130 | 59 | 108 | 1.7 | 1.7 | 0.00 | 0.00 | 0.00 | 99 | 1012.3 |
| 20260902224125 | 60 | 193 | 1.7 | 1.7 | 0.00 | 0.00 | 0.00 | 98 | 1012.2 |